Weather History for VIBN - April, 2014

Change the Weather History Date:

Friday, April 18, 2014

  Actual Average Record
Temperature  
Mean Temperature 90 °F -  
Max Temperature 104 °F 100 °F 105 °F (2002)
Min Temperature 76 °F 74 °F 66 °F (2006)
Cooling Degree Days 25    
Growing Degree Days 40 (Base 50)    
Moisture  
Dew Point 58 °F    
Average Humidity 35    
Maximum Humidity 54    
Minimum Humidity 15    
Precipitation  
Precipitation 0.00 in - - ()
Sea Level Pressure  
Sea Level Pressure 29.81 in    
Wind  
Wind Speed 5 mph ()    
Max Wind Speed 17 mph    
Max Gust Speed -    
Visibility 2.1 miles    
Events      
Averages and records for this station are not official NWS values.
T = Trace of Precipitation, MM = Missing Value Source: Averaged Metar Reports

Daily Weather History Graph

Daily Weather History Graph

Search for Another Location

Airport or City:

Trip Planner

Search our weather history database for the weather conditions in past years. The results will help you decide how hot, cold, wet, or windy it might be!

Date:

Astronomy

Apr. 18, 2014 Rise Set
Actual Time 5:33 AM IST 6:22 PM IST
Civil Twilight 5:10 AM IST 6:46 PM IST
Nautical Twilight 4:42 AM IST 7:14 PM IST
Astronomical Twilight 4:14 AM IST 7:42 PM IST
Moon 9:26 PM IST (4/18) 7:42 AM IST (4/18)
Length of Visible Light 13h 36m
Length of Day
12h 49m
Waning Gibbous, 90% of the Moon is Illuminated
Apr 18
Waning Gibbous
Apr 22
Last Quarter
Apr 29
New
May 7
First Quarter
May 15
Full

Hourly Weather History & Observations

Time (IST) Temp. Heat Index Dew Point Humidity Pressure Visibility Wind Dir Wind Speed Gust Speed Precip Events Conditions
12:00 AM 78.8 °F - 57.2 °F 47% 29.74 in 2.5 mi SW 3.5 mph - N/A   Haze
4:00 AM 77.0 °F - 59.0 °F 54% 29.80 in 2.5 mi WSW 3.5 mph - N/A   Haze
5:30 AM 76 °F - 58 °F 44% 29.80 in 1 mi WSW 2.3 mph - -   Haze
7:00 AM 78.8 °F - 60.8 °F 54% 29.80 in 1.6 mi Calm Calm - N/A   Haze
8:00 AM 84.2 °F 84.4 °F 60.8 °F 45% 29.83 in 1.6 mi Calm Calm - N/A   Haze
9:00 AM 89.6 °F 89.5 °F 60.8 °F 38% 29.83 in 1.6 mi Calm Calm - N/A   Haze
10:00 AM 95.0 °F 95.2 °F 60.8 °F 32% 29.83 in 1.9 mi North 1.2 mph - N/A   Haze
11:00 AM 96.8 °F 96.2 °F 59.0 °F 28% 29.83 in 2.5 mi NNW 2.3 mph - N/A   Haze
11:30 AM 100 °F - 57 °F 15% 29.82 in 2 mi NW 2.3 mph - -   Haze
1:00 PM 104.0 °F 102.9 °F 55.4 °F 20% 29.80 in 3.1 mi NW 3.5 mph - N/A   Haze
2:00 PM 104.0 °F 102.3 °F 53.6 °F 19% 29.77 in 3.1 mi NNW 2.3 mph - N/A   Haze
4:00 PM 96.8 °F 95.8 °F 57.2 °F 27% 29.77 in 1.9 mi North 16.1 mph - N/A   Scattered Clouds
5:00 PM 91.4 °F 89.9 °F 57.2 °F 31% 29.74 in 2.5 mi NNE 15.0 mph - N/A   Haze
5:30 PM 93 °F - 56 °F 19% 29.74 in 1 mi SSW 17.3 mph - -   Haze
6:00 PM 89.6 °F 87.7 °F 55.4 °F 31% 29.77 in 2.5 mi NE 15.0 mph - N/A   Haze
8:00 PM 84.2 °F 83.5 °F 57.2 °F 40% 29.83 in 2.5 mi NE 13.8 mph - N/A   Haze
9:00 PM 82.4 °F 81.4 °F 53.6 °F 37% 29.95 in 2.5 mi WNW 16.1 mph - N/A   Haze
10:00 PM 80.6 °F 80.8 °F 57.2 °F 45% 29.92 in 1.9 mi North 16.1 mph - N/A   Haze
11:00 PM 80.6 °F 80.8 °F 57.2 °F 45% 29.86 in 1.9 mi NE 2.3 mph - N/A   Haze